Precipitable_Water
1.43 1.41 1.38 1.29 1.22 1.16 1.16 1.19 1.22 1.23 1.26 1.31 1.35 1.36 1.43 1.50 1.52 1.56 1.57 1.55 1.47 1.45 1.47 1.44 1.42 1.39 1.44 1.52 1.59 1.62 1.66 1.64 1.72 1.70 1.69 1.71 1.69 1.66 1.60 1.65 1.70 1.63 1.64 1.57 1.60 1.68 1.75 1.86 1.88 1.82 1.78 1.69 1.67 1.68 1.67 1.61 1.61 1.59 1.65 1.67 1.65 1.65 1.63
1.44 1.44 1.44 1.40 1.32 1.27 1.21 1.22 1.25 1.27 1.30 1.33 1.34 1.36 1.42 1.49 1.52 1.53 1.56 1.56 1.50 1.47 1.49 1.47 1.43 1.38 1.38 1.43 1.52 1.60 1.63 1.61 1.64 1.70 1.68 1.68 1.75 1.75 1.71 1.70 1.69 1.66 1.68 1.73 1.74 1.76 1.80 1.80 1.78 1.75 1.79 1.78 1.69 1.73 1.63 1.60 1.57 1.58 1.59 1.57 1.55 1.52 1.51
1.49 1.51 1.51 1.47 1.40 1.35 1.28 1.25 1.27 1.32 1.32 1.34 1.34 1.37 1.40 1.47 1.52 1.53 1.57 1.57 1.53 1.54 1.53 1.48 1.47 1.40 1.38 1.39 1.43 1.50 1.58 1.59 1.59 1.59 1.60 1.63 1.68 1.70 1.72 1.74 1.70 1.72 1.70 1.75 1.80 1.85 1.82 1.77 1.76 1.78 1.78 1.73 1.72 1.70 1.67 1.67 1.65 1.64 1.68 1.68 1.60 1.55 1.54
1.47 1.52 1.56 1.57 1.51 1.45 1.37 1.33 1.31 1.35 1.38 1.38 1.37 1.38 1.44 1.49 1.52 1.58 1.61 1.61 1.54 1.51 1.47 1.47 1.47 1.46 1.40 1.39 1.41 1.44 1.49 1.57 1.58 1.57 1.59 1.67 1.66 1.68 1.70 1.70 1.68 1.69 1.71 1.68 1.73 1.85 1.84 1.83 1.84 1.81 1.80 1.78 1.81 1.79 1.78 1.73 1.75 1.71 1.72 1.72 1.65 1.62 1.61
1.45 1.55 1.58 1.61 1.60 1.54 1.46 1.42 1.40 1.41 1.42 1.43 1.44 1.45 1.48 1.54 1.55 1.59 1.62 1.64 1.57 1.48 1.49 1.49 1.49 1.49 1.46 1.44 1.45 1.45 1.46 1.54 1.59 1.59 1.59 1.62 1.67 1.71 1.70 1.67 1.66 1.65 1.65 1.69 1.71 1.77 1.80 1.83 1.86 1.86 1.80 1.79 1.78 1.77 1.80 1.78 1.75 1.75 1.74 1.74 1.69 1.66 1.67
1.40 1.49 1.55 1.61 1.67 1.70 1.61 1.54 1.51 1.50 1.49 1.47 1.47 1.48 1.51 1.54 1.57 1.56 1.59 1.61 1.59 1.55 1.53 1.51 1.49 1.50 1.47 1.47 1.48 1.47 1.49 1.53 1.57 1.58 1.58 1.61 1.63 1.66 1.67 1.69 1.71 1.70 1.65 1.67 1.73 1.77 1.79 1.76 1.79 1.82 1.78 1.75 1.68 1.74 1.78 1.75 1.75 1.71 1.69 1.72 1.68 1.64 1.66
1.46 1.53 1.61 1.65 1.69 1.72 1.69 1.67 1.73 1.71 1.67 1.60 1.59 1.59 1.56 1.57 1.56 1.55 1.59 1.59 1.60 1.52 1.48 1.45 1.45 1.46 1.48 1.49 1.51 1.54 1.51 1.51 1.53 1.51 1.56 1.58 1.62 1.59 1.59 1.65 1.72 1.67 1.65 1.71 1.71 1.75 1.70 1.68 1.70 1.71 1.77 1.78 1.76 1.75 1.76 1.81 1.83 1.82 1.73 1.71 1.64 1.58 1.65
1.58 1.64 1.68 1.69 1.69 1.73 1.73 1.73 1.77 1.76 1.73 1.81 1.74 1.65 1.69 1.69 1.62 1.58 1.57 1.59 1.59 1.55 1.50 1.46 1.43 1.44 1.46 1.50 1.55 1.55 1.56 1.53 1.52 1.49 1.50 1.49 1.51 1.50 1.53 1.57 1.66 1.69 1.65 1.61 1.67 1.68 1.67 1.69 1.70 1.69 1.71 1.74 1.77 1.81 1.82 1.81 1.84 1.85 1.77 1.75 1.69 1.65 1.64
1.58 1.59 1.60 1.64 1.67 1.73 1.77 1.80 1.82 1.85 1.80 1.85 1.80 1.72 1.76 1.85 1.72 1.65 1.61 1.60 1.60 1.57 1.57 1.56 1.49 1.47 1.46 1.47 1.51 1.54 1.57 1.57 1.54 1.53 1.52 1.49 1.49 1.46 1.48 1.54 1.62 1.68 1.65 1.60 1.64 1.67 1.64 1.66 1.69 1.72 1.68 1.66 1.69 1.71 1.75 1.78 1.79 1.83 1.78 1.74 1.70 1.69 1.68
1.54 1.51 1.58 1.70 1.77 1.78 1.82 1.83 1.82 1.84 1.84 1.84 1.85 1.78 1.83 1.88 1.80 1.71 1.69 1.66 1.63 1.60 1.62 1.57 1.55 1.52 1.50 1.49 1.47 1.51 1.55 1.55 1.59 1.58 1.56 1.49 1.48 1.43 1.42 1.50 1.55 1.61 1.59 1.60 1.60 1.61 1.65 1.67 1.67 1.70 1.70 1.64 1.63 1.65 1.69 1.70 1.73 1.78 1.81 1.76 1.72 1.68 1.67
1.60 1.60 1.60 1.61 1.64 1.68 1.72 1.74 1.75 1.79 1.85 1.81 1.81 1.83 1.86 1.86 1.83 1.79 1.78 1.76 1.70 1.68 1.67 1.64 1.61 1.56 1.54 1.54 1.48 1.47 1.48 1.53 1.60 1.60 1.55 1.50 1.50 1.47 1.45 1.45 1.49 1.53 1.54 1.57 1.58 1.59 1.60 1.68 1.69 1.67 1.67 1.64 1.63 1.65 1.64 1.66 1.70 1.71 1.74 1.76 1.78 1.77 1.75
1.61 1.63 1.62 1.65 1.67 1.64 1.65 1.71 1.77 1.84 1.85 1.85 1.85 1.85 1.86 1.88 1.87 1.87 1.85 1.84 1.81 1.73 1.67 1.65 1.65 1.63 1.60 1.57 1.49 1.48 1.46 1.50 1.55 1.55 1.55 1.54 1.53 1.52 1.54 1.54 1.49 1.48 1.48 1.52 1.55 1.55 1.57 1.60 1.59 1.56 1.59 1.63 1.66 1.66 1.65 1.67 1.70 1.71 1.69 1.67 1.69 1.75 1.79
1.68 1.66 1.65 1.67 1.70 1.72 1.73 1.76 1.79 1.84 1.86 1.88 1.90 1.92 1.94 1.95 1.92 1.89 1.85 1.87 1.90 1.84 1.74 1.72 1.68 1.73 1.72 1.64 1.55 1.52 1.49 1.48 1.49 1.51 1.53 1.53 1.53 1.55 1.54 1.52 1.52 1.51 1.48 1.54 1.52 1.49 1.53 1.57 1.56 1.58 1.55 1.56 1.61 1.63 1.67 1.67 1.65 1.64 1.66 1.65 1.65 1.68 1.69
1.58 1.77 1.69 1.70 1.72 1.72 1.69 1.74 1.77 1.82 1.84 1.85 1.86 1.86 1.87 1.99 1.96 1.92 1.86 1.84 1.91 1.94 1.86 1.77 1.70 1.73 1.83 1.74 1.63 1.56 1.51 1.50 1.50 1.50 1.50 1.53 1.53 1.51 1.47 1.46 1.45 1.47 1.52 1.52 1.55 1.52 1.51 1.54 1.57 1.59 1.61 1.64 1.61 1.61 1.66 1.68 1.67 1.68 1.71 1.70 1.68 1.66 1.66
1.46 1.71 1.79 1.74 1.76 1.80 1.74 1.71 1.74 1.78 1.80 1.84 1.86 1.85 1.91 1.92 1.98 1.99 1.95 1.93 1.98 2.02 1.93 1.83 1.72 1.76 1.85 1.84 1.73 1.66 1.65 1.63 1.61 1.62 1.60 1.58 1.55 1.49 1.45 1.44 1.43 1.43 1.43 1.47 1.47 1.53 1.59 1.60 1.59 1.58 1.60 1.65 1.63 1.62 1.64 1.68 1.68 1.74 1.80 1.77 1.77 1.69 1.67
1.40 1.55 1.65 1.65 1.73 1.78 1.87 1.86 1.88 1.86 1.89 1.89 1.89 1.89 1.88 1.88 1.91 1.95 1.95 1.94 2.02 2.00 1.99 1.93 1.86 1.88 1.92 1.92 1.95 1.99 1.96 1.87 1.80 1.78 1.83 1.79 1.69 1.60 1.58 1.54 1.49 1.48 1.49 1.49 1.44 1.48 1.50 1.52 1.56 1.60 1.63 1.63 1.72 1.78 1.81 1.75 1.72 1.71 1.77 1.80 1.75 1.73 1.72
1.43 1.46 1.54 1.60 1.66 1.76 1.78 1.75 1.86 1.94 2.00 2.02 2.06 2.02 1.94 1.96 1.95 1.96 1.97 1.97 1.95 1.92 2.01 2.04 1.91 1.87 1.88 1.83 1.89 1.88 1.95 1.89 1.96 2.04 1.91 1.92 1.83 1.90 1.84 1.71 1.67 1.61 1.57 1.54 1.55 1.53 1.48 1.45 1.47 1.51 1.56 1.60 1.61 1.66 1.75 1.83 1.84 1.76 1.78 1.78 1.73 1.72 1.72
1.41 1.49 1.55 1.57 1.63 1.70 1.72 1.72 1.72 1.76 1.82 1.85 1.92 1.93 1.93 1.92 1.97 1.97 1.93 1.96 1.96 2.00 2.04 2.06 1.95 1.85 1.82 1.83 1.81 1.85 1.94 2.05 1.94 1.78 1.82 1.92 1.99 1.92 1.87 1.88 1.85 1.78 1.73 1.68 1.67 1.69 1.70 1.68 1.69 1.67 1.66 1.66 1.66 1.66 1.70 1.78 1.84 1.83 1.86 1.91 1.87 1.79 1.75
1.41 1.44 1.49 1.53 1.53 1.56 1.61 1.68 1.73 1.72 1.73 1.74 1.78 1.80 1.82 1.87 1.91 1.88 1.94 1.95 1.97 2.00 2.00 2.02 2.03 2.00 1.95 1.94 1.93 1.96 1.99 1.97 1.96 1.96 1.94 1.91 1.87 1.86 1.94 1.94 1.94 1.93 1.92 1.91 1.93 1.90 1.85 1.86 1.91 1.91 1.91 1.85 1.80 1.77 1.78 1.79 1.83 1.85 1.86 1.93 2.00 1.98 1.91
1.46 1.44 1.45 1.51 1.53 1.56 1.61 1.67 1.67 1.70 1.70 1.73 1.78 1.83 1.84 1.85 1.82 1.87 1.94 1.98 1.99 1.96 1.94 1.94 1.99 2.02 2.05 2.07 2.08 2.05 2.05 2.03 2.00 1.97 2.00 2.03 2.01 1.95 1.92 1.95 1.95 1.94 1.94 1.93 1.91 1.88 1.90 1.94 2.00 2.02 2.00 1.99 1.94 1.90 1.92 1.93 1.89 1.87 1.90 1.95 2.00 2.04 2.03
1.51 1.51 1.49 1.46 1.50 1.53 1.56 1.56 1.59 1.61 1.62 1.64 1.70 1.75 1.76 1.75 1.77 1.80 1.86 1.91 1.91 1.91 1.88 1.88 1.88 1.91 1.94 1.96 1.98 1.97 1.95 1.94 1.96 1.97 1.98 2.00 2.00 1.98 1.95 1.94 1.95 1.94 1.93 1.92 1.90 1.91 1.94 1.95 1.96 2.04 2.09 2.14 2.12 2.02 1.95 1.97 2.00 1.93 1.88 1.89 1.97 2.07 2.09
1.47 1.49 1.53 1.58 1.59 1.61 1.59 1.59 1.60 1.62 1.64 1.67 1.67 1.66 1.68 1.69 1.73 1.73 1.73 1.79 1.79 1.80 1.79 1.79 1.79 1.81 1.85 1.87 1.91 1.94 1.97 1.96 1.93 1.95 1.97 1.97 1.97 1.97 1.97 1.98 1.98 1.97 2.01 2.00 2.01 2.02 2.03 2.06 2.07 2.04 2.02 2.02 2.06 2.04 2.01 2.00 1.99 1.97 1.92 1.90 1.95 2.07 2.15
1.56 1.55 1.59 1.60 1.62 1.60 1.72 1.71 1.67 1.67 1.68 1.67 1.66 1.62 1.61 1.65 1.70 1.71 1.71 1.69 1.71 1.71 1.71 1.71 1.70 1.72 1.78 1.81 1.87 1.94 1.99 2.00 1.98 1.97 1.98 2.00 1.97 1.96 1.98 1.99 2.00 2.03 2.08 2.03 2.02 2.01 2.03 2.06 2.11 2.15 2.11 2.08 2.08 2.02 2.00 2.04 2.05 2.04 2.00 1.95 1.95 1.97 2.10
1.64 1.62 1.63 1.62 1.65 1.67 1.67 1.66 1.66 1.67 1.67 1.67 1.68 1.70 1.71 1.70 1.69 1.66 1.63 1.62 1.63 1.62 1.63 1.65 1.66 1.71 1.74 1.77 1.82 1.88 1.94 1.98 1.95 1.94 1.97 1.98 1.98 1.99 2.00 2.02 2.05 2.07 2.12 2.07 2.04 2.04 2.07 2.10 2.13 2.19 2.20 2.18 2.13 2.09 2.05 2.04 2.05 2.06 2.05 2.03 2.03 2.04 2.07
1.57 1.61 1.61 1.63 1.61 1.60 1.62 1.65 1.66 1.65 1.64 1.62 1.60 1.64 1.65 1.62 1.58 1.54 1.51 1.55 1.58 1.61 1.63 1.63 1.65 1.66 1.67 1.71 1.76 1.81 1.86 1.88 1.90 1.89 1.90 1.93 1.99 2.04 2.05 2.07 2.09 2.12 2.15 2.12 2.11 2.08 2.11 2.14 2.11 2.15 2.19 2.16 2.13 2.13 2.07 2.07 2.08 2.08 2.08 2.07 2.07 2.08 2.10
1.48 1.48 1.49 1.56 1.59 1.60 1.60 1.60 1.56 1.53 1.53 1.53 1.54 1.58 1.59 1.60 1.58 1.56 1.55 1.56 1.59 1.58 1.58 1.60 1.61 1.63 1.64 1.66 1.69 1.72 1.76 1.78 1.79 1.82 1.86 1.91 1.97 2.04 2.08 2.11 2.09 2.09 2.07 2.06 2.06 2.06 2.10 2.10 2.10 2.07 2.09 2.08 2.13 2.11 2.11 2.08 2.08 2.07 2.09 2.12 2.15 2.15 2.12
1.44 1.49 1.45 1.43 1.44 1.45 1.40 1.40 1.38 1.35 1.35 1.39 1.42 1.46 1.49 1.51 1.51 1.49 1.49 1.50 1.48 1.46 1.49 1.54 1.55 1.55 1.58 1.60 1.61 1.62 1.64 1.68 1.71 1.73 1.79 1.85 1.89 1.94 1.98 2.04 2.01 1.97 1.97 1.97 2.00 2.02 2.01 2.00 1.98 1.95 1.99 2.00 2.00 2.05 2.08 2.12 2.11 2.11 2.11 2.13 2.19 2.17 2.04
1.37 1.36 1.41 1.43 1.40 1.33 1.30 1.28 1.28 1.27 1.28 1.31 1.31 1.31 1.28 1.28 1.29 1.31 1.37 1.37 1.34 1.37 1.42 1.41 1.41 1.43 1.46 1.51 1.55 1.57 1.59 1.61 1.64 1.69 1.73 1.78 1.82 1.84 1.88 1.92 1.90 1.84 1.81 1.90 1.93 1.93 1.93 1.94 1.92 1.88 1.86 1.86 2.00 2.10 2.03 2.01 2.01 2.02 2.02 2.02 1.97 2.00 1.98
1.22 1.23 1.23 1.23 1.18 1.20 1.20 1.19 1.21 1.23 1.23 1.24 1.26 1.27 1.26 1.25 1.20 1.19 1.21 1.22 1.28 1.36 1.39 1.39 1.38 1.38 1.36 1.35 1.39 1.48 1.52 1.54 1.55 1.56 1.60 1.64 1.68 1.70 1.72 1.77 1.77 1.78 1.81 1.79 1.82 1.85 1.88 1.89 1.85 1.77 1.75 1.75 1.84 1.88 1.90 1.92 1.94 1.95 1.92 1.94 1.94 1.92 1.91
1.21 1.17 1.17 1.17 1.16 1.15 1.16 1.16 1.16 1.12 1.12 1.13 1.16 1.17 1.16 1.11 1.08 1.09 1.06 1.05 1.13 1.14 1.14 1.16 1.23 1.28 1.28 1.27 1.26 1.26 1.26 1.31 1.35 1.39 1.45 1.47 1.52 1.55 1.52 1.55 1.58 1.60 1.68 1.75 1.77 1.77 1.76 1.80 1.80 1.76 1.71 1.69 1.72 1.74 1.78 1.84 1.86 1.90 1.91 1.91 1.90 1.88 1.85
1.11 1.11 1.11 1.12 1.13 1.15 1.15 1.13 1.08 1.00 0.96 0.99 1.00 1.02 1.02 1.01 0.94 0.94 0.94 1.04 1.10 1.11 1.13 1.13 1.12 1.07 1.04 1.08 1.14 1.18 1.17 1.15 1.20 1.23 1.25 1.33 1.33 1.32 1.35 1.38 1.40 1.40 1.48 1.56 1.61 1.66 1.67 1.71 1.75 1.76 1.73 1.69 1.64 1.65 1.68 1.68 1.69 1.77 1.86 1.83 1.80 1.75 1.72
1.14 1.10 1.08 1.08 1.10 1.09 1.10 1.09 1.00 0.91 0.86 0.89 0.91 0.92 0.94 0.94 0.93 0.87 0.90 0.96 0.99 0.99 0.99 0.99 0.95 0.94 0.97 0.98 0.99 0.97 1.00 1.04 1.08 1.12 1.17 1.26 1.26 1.25 1.25 1.32 1.30 1.31 1.37 1.41 1.46 1.54 1.57 1.58 1.62 1.68 1.71 1.70 1.71 1.70 1.70 1.64 1.64 1.65 1.72 1.70 1.67 1.65 1.64
1.12 1.10 1.08 1.07 1.09 1.08 1.07 1.01 0.90 0.88 0.90 0.89 0.90 0.90 0.90 0.87 0.87 0.86 0.87 0.88 0.91 0.91 0.90 0.90 0.89 0.88 0.87 0.87 0.88 0.91 0.93 0.91 0.93 0.96 1.00 1.05 1.10 1.21 1.23 1.25 1.28 1.25 1.26 1.31 1.33 1.36 1.41 1.46 1.49 1.55 1.60 1.64 1.65 1.64 1.63 1.62 1.53 1.57 1.58 1.60 1.59 1.54 1.51
1.13 1.12 1.10 1.08 1.06 1.07 1.03 0.99 0.92 0.92 0.93 0.91 0.90 0.85 0.82 0.84 0.86 0.90 0.90 0.88 0.88 0.95 0.98 0.98 0.99 0.95 0.94 0.92 0.92 0.91 0.97 1.01 1.04 1.01 0.97 0.94 0.95 0.94 0.95 0.98 1.06 1.09 1.07 1.06 1.11 1.17 1.22 1.23 1.30 1.40 1.46 1.49 1.49 1.47 1.46 1.46 1.41 1.46 1.47 1.47 1.45 1.41 1.37
1.12 1.12 1.14 1.10 1.08 1.06 1.01 0.99 0.93 0.92 0.92 0.91 0.90 0.84 0.83 0.87 0.91 0.91 0.89 0.87 0.86 0.87 0.87 0.89 0.94 0.98 0.99 0.93 0.91 0.93 0.98 0.94 0.96 1.01 1.00 0.94 0.92 0.94 0.99 1.00 0.93 0.88 0.90 0.93 0.93 0.98 1.02 1.10 1.18 1.26 1.32 1.33 1.33 1.31 1.28 1.24 1.19 1.21 1.29 1.32 1.31 1.25 1.15
1.05 1.04 1.02 1.02 1.02 1.00 0.98 0.96 0.88 0.85 0.89 0.90 0.92 0.89 0.89 0.89 0.88 0.88 0.85 0.85 0.85 0.85 0.87 0.90 0.93 0.91 0.89 0.88 0.89 0.92 0.92 0.90 0.89 0.93 0.95 0.91 0.93 0.97 0.95 0.97 0.99 0.97 0.88 0.85 0.87 0.84 0.86 0.91 0.96 1.03 1.07 1.08 1.10 1.10 1.02 1.03 1.11 1.18 1.11 1.10 1.16 1.13 1.02
0.99 1.00 0.99 0.99 0.95 0.93 0.91 0.89 0.83 0.80 0.81 0.85 0.87 0.88 0.88 0.88 0.91 0.91 0.91 0.90 0.87 0.88 0.90 0.92 0.89 0.88 0.84 0.86 0.84 0.88 0.86 0.84 0.82 0.80 0.83 0.86 0.86 0.85 0.84 0.83 0.89 0.95 0.99 0.94 0.83 0.76 0.71 0.73 0.81 0.88 0.90 0.84 0.78 0.83 0.88 0.90 0.92 1.00 1.04 1.02 1.01 0.98 0.94
1.00 0.99 0.95 0.95 0.92 0.90 0.88 0.87 0.84 0.79 0.76 0.78 0.79 0.79 0.80 0.85 0.91 0.94 0.94 0.89 0.88 0.90 0.89 0.93 0.94 0.95 0.91 0.88 0.80 0.80 0.81 0.77 0.79 0.80 0.82 0.79 0.78 0.77 0.72 0.75 0.80 0.87 0.93 0.92 0.90 0.87 0.76 0.69 0.68 0.68 0.67 0.66 0.65 0.63 0.63 0.65 0.65 0.64 0.66 0.70 0.74 0.80 0.81
Wind_Speed
24 22 21 21 21 21 21 22 21 21 20 20 19 19 19 18 17 16 15 15 15 15 15 15 14 13 12 12 11 10 10 9 9 8 8 8 7 7 7 6 6 6 5 5 4 4 4 4 4 4 4 4 3 3 3 3 3 3 3 4 4 3 3
25 24 22 21 22 21 21 22 21 21 21 20 19 19 19 18 18 17 16 16 16 15 15 15 14 14 13 12 12 11 10 10 9 9 8 8 8 7 7 6 6 6 6 5 5 5 4 4 4 4 4 4 3 3 3 3 3 3 3 3 3 3 3
25 25 24 23 22 22 22 22 21 21 21 20 20 19 18 18 18 18 17 17 16 16 15 15 15 15 14 13 12 12 11 11 10 10 9 9 8 8 7 7 6 6 6 5 5 5 5 4 4 4 4 4 4 4 3 3 3 3 3 3 3 3 3
24 24 24 23 23 23 22 22 21 21 21 21 21 19 19 19 18 18 17 17 17 16 16 15 15 15 14 14 13 12 12 11 11 10 10 10 9 8 8 7 7 7 6 6 5 5 5 5 5 5 4 4 4 4 4 3 3 3 3 3 3 3 3
23 23 22 23 23 23 22 22 22 22 22 21 21 20 19 19 18 18 18 17 17 17 16 16 15 15 15 14 14 13 13 12 12 11 10 10 9 9 9 8 8 7 7 7 6 6 6 5 5 5 5 5 4 4 4 4 4 4 4 3 3 3 3
22 22 22 22 22 21 21 21 21 22 23 22 21 20 20 20 19 18 18 18 17 17 17 16 16 15 15 15 15 14 13 13 13 12 11 11 10 10 9 9 9 8 8 7 7 7 6 6 6 6 5 5 5 5 4 4 4 4 4 4 4 4 3
21 20 19 21 22 21 20 20 19 20 20 21 20 20 20 20 20 19 18 18 18 17 17 17 17 16 15 15 15 15 14 14 14 13 12 12 11 11 10 10 9 9 8 8 8 7 7 7 7 7 6 6 6 6 5 5 5 5 4 5 4 4 4
18 18 18 19 21 22 21 20 20 20 20 20 20 19 19 20 20 19 18 18 18 18 18 17 17 16 16 15 15 15 15 15 14 14 13 13 12 12 11 11 11 9 9 9 9 8 8 8 7 7 7 7 7 7 6 6 6 6 5 5 5 5 5
16 18 19 19 21 23 23 21 21 21 21 21 21 20 20 19 19 18 18 19 18 18 18 18 17 17 16 16 15 15 15 15 14 14 14 14 13 13 12 12 11 11 10 10 10 9 9 9 8 8 8 8 8 8 7 7 7 7 6 6 6 6 6
16 17 18 19 20 22 23 22 21 22 22 22 21 21 21 20 19 18 18 19 19 18 18 17 17 17 17 16 16 15 15 15 14 14 15 14 14 14 13 13 12 12 11 11 11 10 10 10 9 9 9 9 9 9 9 9 8 8 8 8 8 8 7
16 16 17 19 20 21 22 23 22 23 23 23 22 23 23 22 21 19 19 19 19 18 18 17 17 18 17 16 16 16 15 15 15 15 15 15 14 14 14 13 13 13 12 12 12 11 11 11 10 10 10 10 10 10 10 10 10 10 9 9 9 9 9
14 15 17 18 20 22 23 23 22 23 23 24 23 23 23 23 22 21 20 20 20 19 18 17 16 17 18 17 16 16 16 15 15 15 15 15 15 15 14 14 14 14 14 14 13 13 12 12 12 11 11 11 11 11 11 11 11 11 11 10 10 10 10
12 13 15 17 19 21 23 22 22 22 23 23 22 22 22 23 23 22 20 20 21 20 19 18 17 16 17 17 17 16 16 16 15 15 15 15 15 15 15 15 14 14 14 14 14 14 14 14 14 13 13 12 12 12 11 12 12 12 12 12 12 11 11
10 11 12 14 16 19 21 22 22 22 23 22 22 21 22 23 23 22 21 21 21 20 20 19 19 18 18 18 17 17 17 16 16 16 16 15 15 15 15 15 15 14 14 13 14 14 14 14 14 14 14 14 14 13 12 12 12 12 13 13 13 13 13
9 9 9 11 13 15 18 19 20 22 23 23 22 21 21 22 22 21 21 21 21 20 19 19 20 20 19 18 17 17 17 16 15 15 15 16 16 16 16 16 16 16 15 14 13 13 13 13 14 14 14 14 14 14 14 13 13 13 13 14 14 14 14
8 8 8 9 11 12 14 16 17 19 21 22 21 20 20 20 20 19 20 20 20 19 18 19 20 20 19 18 17 17 17 16 15 15 15 15 15 16 16 16 16 16 16 16 15 14 14 13 13 13 13 13 13 14 14 14 14 14 14 14 14 14 14
8 7 7 9 11 11 13 14 14 15 17 18 18 18 19 19 19 18 18 19 20 20 19 18 19 19 19 19 18 17 17 17 17 17 16 16 16 16 16 16 16 16 17 17 16 16 15 15 14 14 14 14 14 14 14 14 15 15 15 15 15 15 15
9 8 7 8 10 11 12 13 13 13 13 13 14 15 16 17 18 18 17 17 18 19 19 19 19 19 19 20 20 19 18 18 19 19 19 19 18 18 18 18 18 17 17 17 18 18 18 17 17 16 16 16 16 15 15 15 15 15 15 15 16 16 16
9 9 9 9 9 10 11 11 12 12 12 12 12 12 13 14 16 16 17 17 18 18 18 18 19 20 19 19 19 20 20 19 19 20 21 21 20 20 20 20 20 19 19 19 19 19 20 20 20 19 19 19 18 18 18 17 17 16 16 16 16 16 17
9 9 10 10 10 9 10 10 10 11 11 11 11 11 11 12 13 14 15 16 17 18 18 18 19 20 20 19 19 20 20 20 20 22 22 23 22 22 22 22 22 22 21 21 21 22 22 22 22 22 22 21 21 20 20 20 19 19 18 17 17 17 17
10 9 9 10 11 11 11 10 9 9 10 10 11 10 10 11 11 12 12 14 15 16 17 18 19 19 20 21 21 21 21 21 21 22 24 24 25 24 24 23 23 23 24 23 23 24 24 24 24 24 24 24 24 23 23 22 22 21 20 19 18 18 19
12 11 10 10 11 11 12 11 10 10 10 11 11 11 11 11 12 12 12 12 13 13 14 15 16 17 17 18 19 19 20 21 21 22 23 24 25 25 25 25 25 25 25 25 25 25 26 26 26 26 26 27 27 26 25 25 24 23 23 22 20 20 20
13 13 13 13 12 12 11 10 10 10 11 11 11 12 12 12 12 13 13 13 13 13 14 14 14 15 16 16 16 17 18 19 19 20 21 22 23 23 24 24 25 25 25 26 26 26 27 27 27 27 27 28 28 27 27 27 26 25 24 23 22 21 21
11 10 11 12 12 11 10 10 10 10 10 11 11 11 12 12 12 13 13 13 14 14 14 14 14 15 15 16 16 16 16 16 17 17 18 20 21 22 22 23 23 24 24 25 25 26 26 26 26 27 27 26 26 26 27 27 26 25 25 24 24 23 22
10 8 7 7 8 9 9 9 10 10 10 11 11 11 12 12 13 13 13 13 13 13 13 14 14 14 15 16 16 16 16 16 16 15 16 16 18 20 21 21 21 22 22 23 23 23 24 24 24 25 26 25 24 24 25 26 25 25 25 25 25 24 23
9 8 7 7 7 7 8 9 9 9 9 10 11 11 12 13 13 13 13 13 13 13 13 13 14 14 14 15 15 15 16 16 15 15 14 14 14 16 17 18 18 19 20 20 20 20 21 21 21 22 22 22 22 23 23 23 24 24 24 24 24 24 24
9 9 8 8 7 7 8 9 9 9 10 10 11 11 12 12 12 12 12 12 13 13 13 13 14 14 14 14 14 14 14 15 15 14 14 13 13 13 14 15 15 16 17 17 17 17 17 17 17 17 17 18 19 21 22 21 20 21 21 20 20 21 22
11 10 10 9 9 8 8 9 10 10 11 12 12 12 12 12 12 12 12 12 12 12 13 13 13 13 13 13 13 13 13 14 14 13 13 13 13 12 12 12 14 14 15 15 15 15 15 15 14 14 14 13 13 13 15 15 15 15 16 15 15 16 18
11 12 11 11 10 10 10 10 10 10 10 11 12 12 12 12 12 12 12 11 11 11 12 12 13 13 13 13 13 13 13 13 13 13 13 13 13 13 12 12 13 13 14 14 14 14 14 14 13 12 12 11 9 8 8 10 11 12 13 13 13 14 15
10 11 12 11 11 11 11 10 10 10 11 11 11 12 12 12 12 12 12 12 12 12 11 11 12 13 14 13 13 13 13 14 14 14 14 13 13 13 13 13 12 12 13 13 13 13 14 14 14 13 12 13 12 10 9 10 11 11 12 12 13 13 13
10 10 10 10 10 11 11 11 11 11 11 11 12 12 12 12 12 12 13 13 13 13 12 12 12 12 13 14 14 14 14 15 14 14 14 14 14 14 14 14 14 14 14 14 13 13 13 13 14 14 14 14 14 14 13 12 12 12 12 12 12 12 12
12 11 11 10 10 11 11 11 12 11 11 12 12 12 13 13 13 13 13 14 14 14 13 13 13 13 13 14 14 15 15 15 15 15 15 14 14 15 15 15 15 15 15 15 15 14 14 13 13 14 14 15 15 16 16 16 14 13 13 13 13 13 14
12 12 12 12 12 12 12 12 12 13 13 13 13 14 14 14 14 14 14 14 15 14 14 14 13 13 13 13 14 14 14 15 15 16 16 16 15 15 16 16 16 16 16 16 16 16 16 15 15 14 14 15 15 16 17 17 16 15 15 15 15 16 16
13 12 13 13 13 13 14 14 14 14 14 14 15 15 16 16 16 16 16 15 16 16 16 15 15 15 15 15 14 14 15 15 15 16 16 17 17 17 17 16 16 16 16 16 16 17 17 17 17 16 16 15 16 16 16 17 17 17 17 16 16 17 17
13 13 13 13 13 14 15 15 15 15 16 16 16 17 17 17 17 17 17 17 17 18 18 17 17 17 18 17 17 17 17 17 17 17 17 18 18 18 18 18 18 17 18 18 18 18 18 18 18 18 18 17 17 17 17 18 18 18 18 18 17 17 17
13 13 13 13 13 14 15 15 16 16 16 17 17 17 18 18 19 18 18 19 19 19 19 19 19 19 19 19 19 19 19 19 19 18 19 19 19 19 19 20 19 19 19 19 20 20 20 19 20 20 20 20 20 20 19 19 19 19 18 18 18 18 18
13 13 13 14 14 15 15 16 16 17 17 17 18 18 19 19 20 20 19 20 20 20 20 21 21 21 21 21 21 21 21 21 21 21 20 20 21 21 21 20 20 20 20 20 21 21 21 21 21 21 22 22 22 21 21 20 20 19 19 19 19 19 19
14 15 15 15 16 16 16 17 17 17 18 18 19 19 20 21 21 21 21 21 21 22 22 22 22 22 22 23 23 23 23 23 22 22 22 22 22 22 22 22 22 22 21 21 21 21 22 22 22 22 22 22 22 22 22 22 22 22 22 21 21 22 21
Wind_Direction
209 210 208 205 205 205 203 200 201 200 200 202 201 197 196 194 194 198 199 200 199 198 200 199 198 199 201 202 201 199 199 198 197 196 193 191 190 188 187 188 186 185 184 185 186 186 184 182 178 174 172 171 171 177 181 183 186 186 186 188 193 199 201
210 211 210 207 206 206 205 202 201 201 200 202 202 199 199 197 196 199 201 201 201 200 201 201 201 202 204 205 205 204 203 203 202 201 199 197 194 193 194 194 193 190 188 187 186 185 187 188 186 184 183 179 177 180 184 187 188 186 189 195 201 208 214
208 210 211 209 208 207 206 204 203 203 201 202 202 200 201 200 198 200 202 202 202 202 203 203 203 204 206 207 207 207 206 206 205 204 202 200 199 199 201 201 199 198 196 193 193 192 191 192 193 195 194 191 188 187 188 192 192 192 195 199 203 207 215
207 209 210 210 209 208 207 206 206 205 203 203 203 201 201 201 201 201 203 204 204 204 205 205 205 206 207 208 209 210 209 208 208 207 205 205 205 204 205 206 206 207 206 204 204 203 200 198 199 200 199 198 197 196 198 200 199 201 202 204 210 213 219
205 208 210 209 207 208 208 208 208 207 205 204 203 203 202 202 203 202 203 205 205 206 207 208 208 208 208 210 212 212 212 211 211 211 210 211 211 209 209 210 210 212 213 211 211 211 208 205 205 205 204 205 208 207 208 209 209 213 214 214 221 223 228
204 207 210 208 205 206 207 207 208 208 206 205 205 205 203 202 203 202 203 206 207 207 209 210 211 211 211 211 213 214 214 214 215 215 214 214 214 215 215 214 214 216 218 217 217 216 215 215 214 213 210 211 215 215 213 214 216 221 223 222 227 229 234
204 205 208 207 205 206 205 204 206 206 206 206 206 206 205 204 203 202 203 206 208 209 209 211 212 213 213 213 214 216 216 216 217 217 217 218 219 220 221 220 219 220 221 222 223 222 221 222 223 222 220 218 219 218 218 220 222 224 225 225 230 234 239
202 203 206 206 206 207 206 205 204 204 205 206 205 204 206 205 203 202 203 205 208 210 210 212 213 213 214 214 215 216 217 218 219 219 219 221 224 225 225 224 223 224 225 227 229 229 227 227 228 229 228 226 227 226 226 228 229 229 228 230 233 236 241
201 204 208 208 206 206 206 204 204 204 205 206 205 204 205 205 203 203 204 206 208 210 211 212 213 213 214 215 216 216 218 220 221 220 220 222 224 226 227 227 227 228 230 231 231 232 231 231 232 233 232 232 233 234 235 235 235 234 235 237 239 238 241
203 204 206 207 206 206 205 205 206 206 206 207 208 207 206 206 205 205 206 207 208 209 210 213 214 213 214 216 216 216 218 220 221 222 222 223 224 227 229 230 230 231 232 233 234 234 234 234 235 235 234 235 237 237 238 239 239 238 239 242 243 242 243
207 203 205 206 207 207 207 208 209 209 207 207 207 208 209 208 208 208 209 208 209 210 211 213 215 215 215 215 216 217 218 219 220 223 224 224 226 228 230 232 233 233 233 235 236 237 237 235 236 238 237 238 240 239 239 240 241 242 243 245 245 245 246
213 206 204 206 208 208 208 209 209 208 208 207 207 208 211 210 209 210 211 211 211 212 212 215 216 216 215 215 216 217 219 220 222 224 226 226 227 228 230 232 234 235 236 237 237 239 240 238 239 242 241 240 242 243 243 243 244 245 245 247 246 246 248
217 211 204 203 206 207 206 207 208 207 207 206 207 209 210 211 211 211 213 214 214 215 215 216 218 217 215 216 218 219 221 224 226 227 229 229 229 229 231 232 234 237 239 240 239 240 241 241 242 244 243 242 245 246 246 246 247 248 248 248 247 247 248
216 219 209 204 206 205 203 204 206 205 204 204 206 207 209 211 212 213 214 215 215 216 217 219 221 221 219 220 222 224 225 228 230 231 233 233 232 232 232 233 234 237 239 241 241 240 241 243 245 245 243 242 246 249 250 249 249 250 250 250 249 248 248
211 223 218 208 208 206 202 202 204 203 202 203 204 206 207 209 211 213 215 215 215 217 219 222 223 223 223 224 227 229 229 230 231 234 236 236 236 236 235 236 236 237 239 241 241 240 241 243 246 246 245 244 246 249 251 250 249 251 252 252 251 250 249
201 212 213 205 201 199 197 198 201 201 202 203 205 206 207 208 210 213 216 217 217 219 223 224 223 223 225 228 232 233 233 233 233 236 238 238 238 238 238 239 240 240 240 241 241 241 242 243 244 245 246 247 247 248 249 250 251 252 253 253 253 252 250
203 201 201 197 195 192 190 191 194 198 201 204 206 209 211 212 214 216 218 220 220 221 224 225 225 226 229 232 234 235 236 236 236 236 238 239 239 239 240 241 242 242 242 243 243 243 244 245 245 245 246 247 247 248 250 252 253 254 254 255 255 252 250
212 201 192 184 184 186 186 189 193 197 201 205 207 210 214 217 219 221 223 224 224 225 227 229 231 233 236 238 238 238 239 239 238 238 239 239 240 240 242 243 243 244 245 246 247 247 247 248 248 248 248 248 248 250 252 253 254 255 256 257 257 253 250
214 206 199 190 183 183 185 190 194 195 199 204 208 211 215 219 223 227 229 229 229 230 232 235 237 238 239 241 241 241 243 242 242 242 242 243 243 243 243 243 244 245 246 248 249 249 249 250 251 251 252 251 251 252 252 253 255 256 255 255 257 255 251
209 206 203 200 195 191 189 190 191 193 197 203 209 214 218 223 227 231 233 233 234 236 237 240 242 242 242 242 243 245 248 248 248 246 245 245 246 246 245 245 247 248 249 250 251 251 251 251 252 253 253 254 254 253 253 253 254 255 254 254 256 256 253
204 205 201 201 201 198 195 193 193 197 203 209 215 221 225 227 229 231 233 234 235 237 239 241 244 246 246 246 247 249 252 253 254 252 249 247 247 247 248 248 249 250 250 252 253 253 253 252 253 253 253 254 255 254 254 255 255 255 255 255 255 256 254
210 210 208 208 208 204 202 202 204 209 214 220 224 227 227 228 229 230 232 234 234 236 238 241 244 247 248 249 250 252 254 255 256 254 251 249 247 247 249 250 252 251 251 253 253 254 255 254 254 254 254 254 255 254 254 254 254 255 255 254 254 255 254
219 219 218 218 217 214 211 211 213 216 219 221 224 226 227 228 230 230 231 233 234 236 237 240 245 248 249 250 252 254 256 255 254 253 251 249 248 248 249 252 253 253 252 253 254 256 256 256 256 257 256 255 255 254 253 252 253 253 253 253 253 253 254
218 222 220 219 221 221 220 218 217 218 219 220 223 226 228 229 230 231 231 232 235 238 241 244 248 250 251 252 253 255 255 254 254 256 255 253 251 250 251 253 253 253 253 254 255 257 257 257 257 257 257 255 254 253 251 250 251 252 252 252 253 253 253
207 212 214 215 218 220 219 219 218 218 219 221 223 226 228 229 230 231 232 234 237 240 244 247 249 250 251 252 253 253 253 254 255 258 259 258 255 252 252 253 253 253 253 254 256 257 258 257 256 257 258 257 254 252 250 248 249 251 252 252 252 250 251
203 207 208 207 209 213 215 218 221 221 223 225 225 228 230 231 232 233 235 238 240 242 245 247 248 249 250 251 252 252 252 254 256 258 259 259 257 254 251 251 251 250 251 253 255 256 257 257 257 258 259 257 254 252 249 248 249 251 252 253 251 249 248
207 211 212 211 214 218 220 223 226 227 230 232 233 235 236 234 233 233 235 237 239 242 245 247 248 250 251 252 253 253 252 253 255 257 257 256 256 253 250 249 251 251 251 251 252 253 254 255 256 256 257 259 259 251 246 247 251 252 251 251 249 246 244
215 218 222 226 228 228 226 227 229 231 233 235 237 239 239 236 233 232 234 238 240 243 246 247 247 249 252 254 254 253 252 252 253 254 254 252 251 251 249 250 254 255 253 250 250 250 250 250 253 253 253 260 262 248 238 242 247 248 247 245 244 245 245
222 225 228 231 232 232 230 230 233 235 236 237 238 239 239 238 235 233 235 240 244 247 248 248 248 248 250 252 254 254 253 252 252 254 255 254 253 252 252 251 253 253 252 248 247 246 246 247 249 249 248 249 249 242 239 243 245 246 246 246 247 249 250
223 226 227 229 232 233 232 232 236 240 241 241 240 239 240 240 237 234 235 240 246 248 249 250 250 250 249 250 253 255 255 255 254 255 255 255 255 256 257 256 254 252 250 246 244 244 246 248 248 246 245 244 247 253 257 254 250 250 251 250 250 250 249
222 223 222 224 228 231 233 235 238 241 242 243 242 241 241 241 240 239 240 243 247 249 249 250 252 252 251 250 250 252 253 255 256 256 256 256 256 256 257 257 255 254 252 249 248 247 249 251 250 247 245 245 248 255 259 259 259 258 254 253 251 249 249
230 227 224 225 230 233 235 239 241 241 240 241 242 242 242 242 242 242 243 245 247 247 248 250 251 253 254 253 252 252 251 252 254 254 255 256 255 255 255 256 256 257 256 254 253 253 254 255 254 251 248 247 248 253 257 261 264 262 257 255 254 253 253
239 234 230 232 235 237 239 242 245 244 243 243 245 245 244 245 245 245 245 246 246 246 247 248 249 251 252 253 253 253 252 252 254 254 254 257 257 255 256 257 257 256 256 256 255 255 256 257 257 256 254 252 252 255 256 258 261 262 260 259 258 257 256
242 240 238 238 240 241 244 248 249 248 248 248 248 248 248 248 249 249 248 248 248 248 248 248 251 252 252 251 252 255 255 256 257 257 256 258 259 258 257 258 257 256 256 258 257 256 256 257 257 257 257 256 257 259 259 258 260 261 261 263 264 262 259
243 244 245 245 244 244 246 250 252 252 252 252 251 250 250 251 251 252 251 251 252 252 251 252 254 255 254 252 254 256 258 258 258 258 258 258 259 258 258 259 260 259 259 260 260 260 258 256 256 256 256 258 260 261 262 262 261 261 260 262 264 262 259
246 247 248 247 247 247 248 251 252 253 253 254 253 253 252 252 252 252 253 253 254 253 253 254 255 255 254 254 256 257 259 260 260 258 257 258 259 259 258 259 261 261 260 260 261 262 260 258 257 256 256 258 261 262 262 263 262 261 259 259 259 259 259
250 250 250 251 251 251 251 251 252 253 254 255 255 255 255 255 254 254 254 255 255 255 255 256 256 256 255 256 257 259 261 262 262 260 257 257 258 258 258 259 260 261 261 261 261 262 261 260 259 258 258 259 260 262 262 262 262 260 259 259 257 257 259
255 254 255 254 253 253 253 252 253 254 254 255 256 256 257 257 257 257 256 256 257 256 256 257 259 259 257 257 258 259 260 261 262 261 259 258 257 257 258 258 259 260 261 261 261 262 262 262 262 262 262 262 262 262 263 263 262 261 260 260 258 256 256